• In Hungary
  • List of Countries
  • For 7 days
  • Water Temperature
  • Satellite Maps
  • Weather Map
  • News
  • Weather Widgets
  • user-avatar
    Login

    Hourly Weather Pudasjärvi

    Today, 18 December, Monday

    Time Temperature Precipitation Wind Pressure Humidity
    00:00 -8°C° 0 mm 3 mps 743 mmHg 95%
    01:00 -8°C° 0 mm 3 mps 743 mmHg 95%
    02:00 -7°C° 0 mm 3 mps 743 mmHg 96%
    03:00 -6°C° 0.2 mm 3 mps 743 mmHg 95%
    04:00 -6°C° 0.2 mm 3 mps 743 mmHg 94%
    05:00 -5°C° 0.2 mm 4 mps 744 mmHg 94%
    06:00 -5°C° 0.2 mm 4 mps 744 mmHg 93%
    07:00 -4°C° 0.2 mm 4 mps 744 mmHg 92%
    08:00 -4°C° 0.2 mm 4 mps 745 mmHg 92%
    09:00 -4°C° 0.1 mm 4 mps 745 mmHg 92%
    10:00 -4°C° 0.1 mm 4 mps 745 mmHg 92%
    11:00 -4°C° 0.1 mm 4 mps 746 mmHg 92%
    12:00 -4°C° 0.1 mm 3 mps 746 mmHg 92%
    13:00 -5°C° 0.1 mm 3 mps 747 mmHg 93%
    14:00 -5°C° 0.1 mm 3 mps 747 mmHg 93%
    15:00 -5°C° 0.1 mm 3 mps 747 mmHg 94%
    16:00 -5°C° 0.1 mm 3 mps 748 mmHg 94%
    17:00 -4°C° 0.1 mm 2 mps 748 mmHg 95%
    18:00 -4°C° 0.1 mm 2 mps 749 mmHg 95%
    19:00 -4°C° 0.1 mm 2 mps 749 mmHg 96%
    20:00 -2°C° 0.1 mm 1 mps 749 mmHg 96%
    21:00 -3°C° 0 mm 1 mps 750 mmHg 96%
    22:00 -3°C° 0 mm 1 mps 750 mmHg 97%
    23:00 -4°C° 0 mm 1 mps 750 mmHg 97%

    Tomorrow, 19 December, Tuesday

    Time Temperature Precipitation Wind Pressure Humidity
    00:00 -4°C° 0 mm 1 mps 751 mmHg 97%
    01:00 -4°C° 0 mm 1 mps 751 mmHg 97%
    02:00 -6°C° 0 mm 0 mps 752 mmHg 97%
    03:00 -6°C° 0 mm 0 mps 752 mmHg 97%
    04:00 -6°C° 0 mm 1 mps 752 mmHg 97%
    05:00 -6°C° 0 mm 1 mps 753 mmHg 96%
    06:00 -6°C° 0 mm 1 mps 753 mmHg 96%
    07:00 -6°C° 0 mm 1 mps 754 mmHg 96%
    08:00 -6°C° 0 mm 1 mps 754 mmHg 96%
    09:00 -6°C° 0 mm 1 mps 754 mmHg 96%
    10:00 -6°C° 0 mm 1 mps 754 mmHg 96%
    11:00 -6°C° 0 mm 1 mps 755 mmHg 96%
    12:00 -6°C° 0 mm 1 mps 755 mmHg 96%
    13:00 -6°C° 0 mm 1 mps 755 mmHg 97%
    14:00 -6°C° 0 mm 1 mps 755 mmHg 97%
    15:00 -6°C° 0 mm 2 mps 755 mmHg 97%
    16:00 -6°C° 0 mm 2 mps 754 mmHg 97%
    17:00 -5°C° 0 mm 2 mps 754 mmHg 97%
    18:00 -5°C° 0 mm 3 mps 754 mmHg 96%
    19:00 -5°C° 0 mm 3 mps 754 mmHg 95%
    20:00 -4°C° 0 mm 4 mps 753 mmHg 94%
    21:00 -4°C° 0.1 mm 4 mps 753 mmHg 93%
    22:00 -4°C° 0.1 mm 5 mps 753 mmHg 92%
    23:00 -4°C° 0.1 mm 5 mps 752 mmHg 91%

    Day after tomorrow, 20 December, Wednesday

    Time Temperature Precipitation Wind Pressure Humidity
    00:00 -4°C° 0.2 mm 5 mps 752 mmHg 90%
    01:00 -2°C° 0.2 mm 5 mps 751 mmHg 89%
    02:00 -2°C° 0.2 mm 5 mps 751 mmHg 88%
    03:00 -2°C° 0.1 mm 5 mps 751 mmHg 89%
    04:00 -2°C° 0.1 mm 5 mps 750 mmHg 91%
    05:00 -1°C° 0.1 mm 5 mps 750 mmHg 92%
    06:00 -1°C° 0.1 mm 5 mps 749 mmHg 93%
    07:00 0°C° 0.1 mm 5 mps 749 mmHg 95%
    08:00 0°C° 0.1 mm 5 mps 749 mmHg 97%
    09:00 0°C° 0.3 mm 5 mps 749 mmHg 97%
    10:00 -1°C° 0.3 mm 6 mps 748 mmHg 98%
    11:00 +1°C° 0.3 mm 6 mps 748 mmHg 98%
    12:00 +1°C° 1.3 mm 6 mps 748 mmHg 98%
    13:00 +1°C° 1.3 mm 6 mps 747 mmHg 98%
    14:00 +1°C° 1.3 mm 6 mps 747 mmHg 97%
    15:00 +1°C° 2.1 mm 5 mps 747 mmHg 97%
    16:00 0°C° 2.1 mm 5 mps 747 mmHg 96%
    17:00 0°C° 2.1 mm 5 mps 746 mmHg 96%
    18:00 0°C° 0.7 mm 4 mps 747 mmHg 96%
    19:00 +1°C° 0.7 mm 3 mps 747 mmHg 97%
    20:00 0°C° 0.7 mm 3 mps 747 mmHg 97%
    21:00 +1°C° 0 mm 2 mps 747 mmHg 98%
    22:00 +1°C° 0 mm 2 mps 747 mmHg 98%
    23:00 +1°C° 0 mm 2 mps 747 mmHg 98%

    21 December, Thursday

    Time Temperature Precipitation Wind Pressure Humidity
    00:00 +1°C° 0 mm 1 mps 747 mmHg 98%
    01:00 +1°C° 0 mm 1 mps 748 mmHg 97%
    02:00 0°C° 0 mm 1 mps 748 mmHg 97%
    03:00 0°C° 0 mm 1 mps 748 mmHg 96%
    04:00 -1°C° 0 mm 1 mps 747 mmHg 96%
    05:00 -1°C° 0 mm 1 mps 747 mmHg 95%
    06:00 -4°C° 0 mm 2 mps 747 mmHg 95%
    07:00 -4°C° 0 mm 2 mps 746 mmHg 95%
    08:00 -5°C° 0 mm 2 mps 746 mmHg 94%
    09:00 -5°C° 0 mm 2 mps 745 mmHg 94%
    10:00 -5°C° 0 mm 2 mps 745 mmHg 93%
    11:00 -6°C° 0 mm 3 mps 745 mmHg 92%
    12:00 -5°C° 0.1 mm 3 mps 744 mmHg 92%
    13:00 -5°C° 0.1 mm 3 mps 743 mmHg 92%
    14:00 -4°C° 0.1 mm 3 mps 743 mmHg 92%
    15:00 -4°C° 0.3 mm 3 mps 743 mmHg 93%
    16:00 -2°C° 0.3 mm 3 mps 742 mmHg 93%
    17:00 -2°C° 0.3 mm 3 mps 742 mmHg 94%
    18:00 -2°C° 0 mm 3 mps 742 mmHg 94%
    19:00 -3°C° 0 mm 2 mps 742 mmHg 95%
    20:00 -4°C° 0 mm 2 mps 742 mmHg 95%
    21:00 -5°C° 0 mm 2 mps 742 mmHg 95%
    22:00 -5°C° 0 mm 2 mps 742 mmHg 95%
    23:00 -6°C° 0 mm 2 mps 742 mmHg 95%

    22 December, Friday

    Time Temperature Precipitation Wind Pressure Humidity
    00:00 -6°C° 0 mm 2 mps 741 mmHg 95%
    01:00 -6°C° 0 mm 2 mps 741 mmHg 95%
    02:00 -6°C° 0 mm 2 mps 741 mmHg 96%
    03:00 -6°C° 0 mm 2 mps 740 mmHg 96%
    04:00 -6°C° 0 mm 3 mps 740 mmHg 96%
    05:00 -6°C° 0 mm 3 mps 739 mmHg 96%
    06:00 -6°C° 0 mm 3 mps 739 mmHg 95%
    07:00 -5°C° 0 mm 3 mps 739 mmHg 95%
    08:00 -5°C° 0 mm 3 mps 739 mmHg 95%
    09:00 -4°C° 0 mm 2 mps 739 mmHg 95%
    10:00 -5°C° 0 mm 2 mps 739 mmHg 96%
    11:00 -5°C° 0 mm 2 mps 739 mmHg 96%
    12:00 -5°C° 0 mm 2 mps 739 mmHg 96%
    13:00 -6°C° 0 mm 2 mps 739 mmHg 96%
    14:00 -6°C° 0 mm 2 mps 739 mmHg 96%
    15:00 -7°C° 0 mm 2 mps 739 mmHg 96%
    16:00 -7°C° 0 mm 2 mps 739 mmHg 96%
    17:00 -8°C° 0 mm 2 mps 739 mmHg 96%
    18:00 -8°C° 0 mm 2 mps 740 mmHg 95%
    19:00 -9°C° 0 mm 2 mps 740 mmHg 95%
    20:00 -9°C° 0 mm 2 mps 740 mmHg 94%
    21:00 -9°C° 0 mm 2 mps 740 mmHg 94%
    22:00 -9°C° 0 mm 2 mps 741 mmHg 94%
    23:00 -9°C° 0 mm 2 mps 741 mmHg 94%

    23 December, Saturday

    Time Temperature Precipitation Wind Pressure Humidity
    00:00 -9°C° 0 mm 2 mps 741 mmHg 94%
    01:00 -9°C° 0 mm 2 mps 741 mmHg 93%
    02:00 -9°C° 0 mm 2 mps 741 mmHg 93%
    03:00 -9°C° 0 mm 2 mps 741 mmHg 93%
    04:00 -8°C° 0 mm 2 mps 741 mmHg 93%
    05:00 -8°C° 0 mm 2 mps 741 mmHg 93%
    06:00 -8°C° 0 mm 2 mps 741 mmHg 93%
    07:00 -8°C° 0 mm 2 mps 742 mmHg 92%
    08:00 -8°C° 0 mm 2 mps 742 mmHg 92%
    09:00 -8°C° 0 mm 2 mps 742 mmHg 92%
    10:00 -8°C° 0 mm 2 mps 742 mmHg 92%
    11:00 -8°C° 0 mm 2 mps 742 mmHg 93%
    12:00 -9°C° 0 mm 2 mps 742 mmHg 93%
    13:00 -9°C° 0 mm 2 mps 742 mmHg 93%
    14:00 -9°C° 0 mm 2 mps 742 mmHg 93%
    15:00 -9°C° 0 mm 2 mps 741 mmHg 94%
    16:00 -9°C° 0 mm 2 mps 740 mmHg 94%
    17:00 -9°C° 0 mm 2 mps 740 mmHg 94%
    18:00 -8°C° 0 mm 2 mps 739 mmHg 94%
    19:00 -8°C° 0 mm 3 mps 738 mmHg 93%
    20:00 -7°C° 0 mm 3 mps 737 mmHg 93%
    21:00 -8°C° 0.4 mm 4 mps 736 mmHg 93%
    22:00 -8°C° 0.4 mm 4 mps 734 mmHg 93%
    23:00 -8°C° 0.4 mm 5 mps 733 mmHg 94%
    Show more